Time,TemperatureF,DewpointF,PressureIn,WindDirection,WindDirectionDegrees,WindSpeedMPH,WindSpeedGustMPH,Humidity,HourlyPrecipIn,Conditions,Clouds,dailyrainin,SoftwareType,DateUTC
2013-09-02 00:02:00,69.0,67.5,29.72,NE,34,0.0,0.0,95,0.00,,,0.02,VWS V14.01,2013-09-02 04:02:00,
2013-09-02 00:17:00,69.1,67.6,29.73,NNE,33,0.0,1.0,95,0.00,,,0.00,VWS V14.01,2013-09-02 04:17:00,
2013-09-02 00:32:00,69.2,68.0,29.72,NE,34,0.0,0.0,96,0.00,,,0.00,VWS V14.01,2013-09-02 04:32:00,
2013-09-02 00:47:00,69.1,67.9,29.72,NE,34,0.0,0.0,96,0.00,,,0.00,VWS V14.01,2013-09-02 04:47:00,
2013-09-02 01:02:00,69.2,68.0,29.73,NE,34,0.0,1.0,96,0.00,,,0.00,VWS V14.01,2013-09-02 05:02:00,
2013-09-02 01:17:00,69.3,68.1,29.72,SSE,154,0.0,4.0,96,0.00,,,0.00,VWS V14.01,2013-09-02 05:17:00,
2013-09-02 01:32:00,69.3,68.1,29.72,SSE,154,0.0,1.0,96,0.00,,,0.00,VWS V14.01,2013-09-02 05:32:00,
2013-09-02 01:47:00,69.4,68.2,29.72,SSE,153,0.0,1.0,96,0.00,,,0.00,VWS V14.01,2013-09-02 05:47:00,
2013-09-02 02:02:00,69.4,68.5,29.71,South,173,0.0,2.0,97,0.00,,,0.00,VWS V14.01,2013-09-02 06:02:00,
2013-09-02 02:17:00,69.5,68.6,29.71,South,173,0.0,2.0,97,0.00,,,0.00,VWS V14.01,2013-09-02 06:17:00,
2013-09-02 02:32:00,69.6,68.7,29.70,South,173,0.0,0.0,97,0.00,,,0.00,VWS V14.01,2013-09-02 06:32:00,
2013-09-02 02:47:00,69.4,68.5,29.70,South,173,0.0,0.0,97,0.00,,,0.00,VWS V14.01,2013-09-02 06:47:00,
2013-09-02 03:02:00,69.1,68.2,29.70,SSW,194,0.0,3.0,97,0.00,,,0.00,VWS V14.01,2013-09-02 07:02:00,
2013-09-02 03:17:00,68.9,68.0,29.70,SSW,192,0.0,3.0,97,0.00,,,0.00,VWS V14.01,2013-09-02 07:17:00,
2013-09-02 03:32:00,68.6,67.4,29.70,SSW,213,0.0,4.0,96,0.00,,,0.00,VWS V14.01,2013-09-02 07:32:00,
2013-09-02 03:47:00,68.3,67.1,29.70,South,184,0.0,5.0,96,0.00,,,0.00,VWS V14.01,2013-09-02 07:47:00,
2013-09-02 04:02:00,68.0,66.5,29.69,South,174,0.0,3.0,95,0.00,,,0.00,VWS V14.01,2013-09-02 08:02:00,
2013-09-02 04:17:00,67.7,66.2,29.69,South,175,0.0,2.0,95,0.00,,,0.00,VWS V14.01,2013-09-02 08:17:00,
2013-09-02 04:32:00,67.5,66.0,29.69,SSE,147,0.0,3.0,95,0.00,,,0.00,VWS V14.01,2013-09-02 08:32:00,
2013-09-02 04:47:00,67.3,65.8,29.69,SSE,157,0.0,4.0,95,0.00,,,0.00,VWS V14.01,2013-09-02 08:47:00,
2013-09-02 05:02:00,67.2,65.7,29.69,SSE,163,0.0,4.0,95,0.00,,,0.00,VWS V14.01,2013-09-02 09:02:00,
2013-09-02 05:17:00,67.1,65.9,29.69,SSE,163,0.0,4.0,96,0.00,,,0.00,VWS V14.01,2013-09-02 09:17:00,
2013-09-02 05:32:00,67.0,65.8,29.69,South,189,0.0,4.0,96,0.00,,,0.00,VWS V14.01,2013-09-02 09:32:00,
2013-09-02 05:47:00,66.9,65.7,29.69,South,169,0.0,3.0,96,0.00,,,0.00,VWS V14.01,2013-09-02 09:47:00,
2013-09-02 06:02:00,66.9,65.7,29.69,South,183,0.0,2.0,96,0.00,,,0.00,VWS V14.01,2013-09-02 10:02:00,
2013-09-02 06:17:00,67.1,66.2,29.69,South,177,0.0,5.0,97,0.00,,,0.00,VWS V14.01,2013-09-02 10:17:00,
2013-09-02 06:32:00,67.1,66.2,29.69,SSW,200,0.0,4.0,97,0.00,,,0.00,VWS V14.01,2013-09-02 10:32:00,
2013-09-02 06:47:00,67.1,66.2,29.70,South,187,0.0,4.0,97,0.00,,,0.00,VWS V14.01,2013-09-02 10:47:00,
2013-09-02 07:02:00,67.0,66.1,29.69,SSW,198,0.0,3.0,97,0.00,,,0.00,VWS V14.01,2013-09-02 11:02:00,
2013-09-02 07:17:00,66.9,66.0,29.69,SSW,198,0.0,1.0,97,0.00,,,0.00,VWS V14.01,2013-09-02 11:17:00,
2013-09-02 07:32:00,66.9,66.0,29.69,SSW,198,0.0,3.0,97,0.00,,,0.00,VWS V14.01,2013-09-02 11:32:00,
2013-09-02 07:47:00,67.1,66.2,29.69,SSW,196,0.0,3.0,97,0.00,,,0.00,VWS V14.01,2013-09-02 11:47:00,
2013-09-02 08:02:00,67.6,66.7,29.69,South,176,0.0,2.0,97,0.00,,,0.00,VWS V14.01,2013-09-02 12:02:00,
2013-09-02 08:17:00,68.3,67.4,29.69,SSE,155,2.0,4.0,97,0.00,,,0.00,VWS V14.01,2013-09-02 12:17:00,
2013-09-02 08:32:00,69.1,68.5,29.67,South,170,0.0,4.0,98,0.00,,,0.00,VWS V14.01,2013-09-02 12:32:00,
2013-09-02 08:47:00,69.9,69.0,29.68,SSE,156,0.0,5.0,97,0.00,,,0.00,VWS V14.01,2013-09-02 12:47:00,
2013-09-02 09:02:00,71.0,69.8,29.68,South,182,0.0,5.0,96,0.00,,,0.00,VWS V14.01,2013-09-02 13:02:00,
2013-09-02 09:17:00,72.4,70.9,29.68,SSW,210,1.0,4.0,95,0.00,,,0.00,VWS V14.01,2013-09-02 13:17:00,
2013-09-02 09:32:00,73.7,71.2,29.69,SSW,192,1.0,6.0,92,0.00,,,0.00,VWS V14.01,2013-09-02 13:32:00,
2013-09-02 09:47:00,74.6,71.5,29.69,South,180,0.0,4.0,90,0.00,,,0.00,VWS V14.01,2013-09-02 13:47:00,
2013-09-02 10:02:00,75.6,71.8,29.70,SSW,206,0.0,5.0,88,0.00,,,0.00,VWS V14.01,2013-09-02 14:02:00,
2013-09-02 10:17:00,75.6,71.8,29.69,SSE,163,1.0,4.0,88,0.00,,,0.00,VWS V14.01,2013-09-02 14:17:00,
2013-09-02 10:32:00,75.7,72.2,29.69,SSW,203,0.0,4.0,89,0.00,,,0.00,VWS V14.01,2013-09-02 14:32:00,
2013-09-02 10:47:00,76.7,72.9,29.69,SSW,205,0.0,3.0,88,0.00,,,0.00,VWS V14.01,2013-09-02 14:47:00,
2013-09-02 11:02:00,78.6,73.4,29.68,SE,133,0.0,4.0,84,0.00,,,0.00,VWS V14.01,2013-09-02 15:02:00,
2013-09-02 11:17:00,79.0,72.7,29.68,WNW,300,2.0,5.0,81,0.00,,,0.00,VWS V14.01,2013-09-02 15:17:00,
2013-09-02 11:32:00,77.8,71.9,29.68,WNW,299,0.0,5.0,82,0.00,,,0.00,VWS V14.01,2013-09-02 15:32:00,
2013-09-02 11:47:00,77.4,72.2,29.66,SSW,207,0.0,2.0,84,0.00,,,0.00,VWS V14.01,2013-09-02 15:47:00,
2013-09-02 12:02:00,78.0,73.8,29.66,SSW,205,0.0,4.0,87,0.00,,,0.00,VWS V14.01,2013-09-02 16:02:00,
2013-09-02 12:17:00,80.2,73.5,29.66,SW,225,0.0,5.0,80,0.00,,,0.00,VWS V14.01,2013-09-02 16:17:00,
2013-09-02 12:32:00,81.4,73.1,29.65,South,174,1.0,5.0,76,0.00,,,0.00,VWS V14.01,2013-09-02 16:32:00,
2013-09-02 12:47:00,81.5,72.4,29.65,SSW,201,0.0,6.0,74,0.00,,,0.00,VWS V14.01,2013-09-02 16:47:00,
2013-09-02 13:02:00,80.8,72.1,29.65,SSW,209,0.0,4.0,75,0.00,,,0.00,VWS V14.01,2013-09-02 17:02:00,
2013-09-02 13:17:00,81.7,73.8,29.65,WSW,246,0.0,4.0,77,0.00,,,0.00,VWS V14.01,2013-09-02 17:17:00,
2013-09-02 13:32:00,82.0,72.9,29.64,WSW,237,0.0,5.0,74,0.00,,,0.00,VWS V14.01,2013-09-02 17:32:00,
2013-09-02 13:47:00,80.9,72.2,29.65,SW,218,0.0,5.0,75,0.00,,,0.00,VWS V14.01,2013-09-02 17:47:00,
2013-09-02 14:02:00,80.3,72.8,29.65,South,186,0.0,6.0,78,0.00,,,0.00,VWS V14.01,2013-09-02 18:02:00,
2013-09-02 14:17:00,80.4,72.9,29.64,SSW,209,3.0,9.0,78,0.00,,,0.00,VWS V14.01,2013-09-02 18:17:00,
2013-09-02 14:32:00,81.0,72.7,29.64,WNW,294,6.0,11.0,76,0.00,,,0.00,VWS V14.01,2013-09-02 18:32:00,
2013-09-02 14:47:00,81.7,72.2,29.63,SSW,206,4.0,13.0,73,0.00,,,0.00,VWS V14.01,2013-09-02 18:47:00,
2013-09-02 15:02:00,81.3,71.8,29.63,WSW,257,0.0,10.0,73,0.00,,,0.00,VWS V14.01,2013-09-02 19:02:00,
2013-09-02 15:17:00,80.9,71.4,29.63,WNW,296,0.0,10.0,73,0.00,,,0.00,VWS V14.01,2013-09-02 19:17:00,
2013-09-02 15:32:00,80.9,71.0,29.63,WNW,300,5.0,11.0,72,0.00,,,0.00,VWS V14.01,2013-09-02 19:32:00,
2013-09-02 15:47:00,79.5,69.7,29.63,WSW,248,1.0,13.0,72,0.00,,,0.00,VWS V14.01,2013-09-02 19:47:00,
2013-09-02 16:02:00,79.7,69.9,29.63,WNW,300,0.0,9.0,72,0.00,,,0.00,VWS V14.01,2013-09-02 20:02:00,
2013-09-02 16:17:00,79.4,69.2,29.63,WNW,292,2.0,9.0,71,0.00,,,0.00,VWS V14.01,2013-09-02 20:17:00,
2013-09-02 16:32:00,78.4,68.6,29.63,WNW,290,0.0,6.0,72,0.00,,,0.00,VWS V14.01,2013-09-02 20:32:00,
2013-09-02 16:47:00,76.7,68.6,29.65,WSW,246,2.0,14.0,76,0.00,,,0.00,VWS V14.01,2013-09-02 20:47:00,
2013-09-02 17:02:00,74.1,68.3,29.66,West,267,6.0,14.0,82,0.00,,,0.00,VWS V14.01,2013-09-02 21:02:00,
2013-09-02 17:17:00,73.1,68.3,29.66,SW,219,4.0,10.0,85,0.00,,,0.00,VWS V14.01,2013-09-02 21:17:00,
2013-09-02 17:32:00,72.3,67.9,29.65,West,261,0.0,7.0,86,0.00,,,0.00,VWS V14.01,2013-09-02 21:32:00,
2013-09-02 17:47:00,72.3,68.2,29.66,NNW,344,0.0,5.0,87,0.00,,,0.00,VWS V14.01,2013-09-02 21:47:00,
2013-09-02 18:02:00,72.5,68.4,29.66,West,272,1.0,4.0,87,0.00,,,0.00,VWS V14.01,2013-09-02 22:02:00,
2013-09-02 18:17:00,72.2,67.4,29.67,West,275,0.0,7.0,85,0.00,,,0.00,VWS V14.01,2013-09-02 22:17:00,
2013-09-02 18:32:00,71.8,67.1,29.68,West,260,0.0,9.0,85,0.00,,,0.00,VWS V14.01,2013-09-02 22:32:00,
2013-09-02 18:47:00,71.7,66.9,29.67,WNW,284,1.0,5.0,85,0.00,,,0.00,VWS V14.01,2013-09-02 22:47:00,
2013-09-02 19:02:00,71.0,66.6,29.67,West,273,0.0,6.0,86,0.00,,,0.00,VWS V14.01,2013-09-02 23:02:00,
2013-09-02 19:17:00,70.3,65.6,29.68,NW,304,0.0,5.0,85,0.00,,,0.00,VWS V14.01,2013-09-02 23:17:00,
2013-09-02 19:32:00,69.9,64.8,29.68,West,277,0.0,7.0,84,0.00,,,0.00,VWS V14.01,2013-09-02 23:32:00,
2013-09-02 19:47:00,69.5,64.1,29.68,WNW,290,2.0,13.0,83,0.00,,,0.00,VWS V14.01,2013-09-02 23:47:00,
2013-09-02 20:02:00,69.2,63.5,29.68,West,265,6.0,12.0,82,0.00,,,0.00,VWS V14.01,2013-09-03 00:02:00,
2013-09-02 20:17:00,68.7,62.6,29.69,WSW,242,0.0,9.0,81,0.00,,,0.00,VWS V14.01,2013-09-03 00:17:00,
2013-09-02 20:32:00,68.1,61.3,29.69,WNW,284,5.0,11.0,79,0.00,,,0.00,VWS V14.01,2013-09-03 00:32:00,
2013-09-02 20:47:00,67.5,60.8,29.70,West,275,3.0,9.0,79,0.00,,,0.00,VWS V14.01,2013-09-03 00:47:00,
2013-09-02 21:02:00,66.9,60.5,29.71,WNW,298,3.0,10.0,80,0.00,,,0.00,VWS V14.01,2013-09-03 01:02:00,
2013-09-02 21:17:00,66.3,60.3,29.71,WSW,252,0.0,7.0,81,0.00,,,0.00,VWS V14.01,2013-09-03 01:17:00,
2013-09-02 21:32:00,65.8,59.8,29.73,West,279,0.0,7.0,81,0.00,,,0.00,VWS V14.01,2013-09-03 01:32:00,
2013-09-02 21:47:00,65.3,59.7,29.72,WNW,292,0.0,6.0,82,0.00,,,0.00,VWS V14.01,2013-09-03 01:47:00,
2013-09-02 22:02:00,65.0,59.4,29.73,WNW,288,3.0,10.0,82,0.00,,,0.00,VWS V14.01,2013-09-03 02:02:00,
2013-09-02 22:17:00,65.0,59.0,29.73,WNW,284,2.0,8.0,81,0.00,,,0.00,VWS V14.01,2013-09-03 02:17:00,
2013-09-02 22:32:00,65.4,59.1,29.74,WNW,300,0.0,4.0,80,0.00,,,0.00,VWS V14.01,2013-09-03 02:32:00,
2013-09-02 22:47:00,65.4,59.1,29.73,West,263,2.0,7.0,80,0.00,,,0.00,VWS V14.01,2013-09-03 02:47:00,
2013-09-02 23:02:00,65.2,59.6,29.74,SW,215,0.0,2.0,82,0.00,,,0.00,VWS V14.01,2013-09-03 03:02:00,
2013-09-02 23:17:00,64.7,58.7,29.75,West,271,0.0,3.0,81,0.00,,,0.00,VWS V14.01,2013-09-03 03:17:00,
2013-09-02 23:32:00,64.3,58.7,29.75,West,271,0.0,1.0,82,0.00,,,0.00,VWS V14.01,2013-09-03 03:32:00,
2013-09-02 23:47:00,64.0,58.4,29.75,West,261,0.0,1.0,82,0.00,,,0.00,VWS V14.01,2013-09-03 03:47:00,